FW7504 Weather Reports


time (UTC)temp
C
wind
direction
speed
KPH
gust
KPH
rain 1hr
cm
rain 24hr
cm
rain mn
cm
humidity
%
barometer
mb
20260508135553 15 0 0.0 6.4 0.00 0.00 0.00 69 1019.5
20260508135052 15 360 1.6 6.4 0.00 0.00 0.00 69 1019.5
20260508134550 15 0 0.0 6.4 0.00 0.00 0.00 69 1019.5
20260508134052 14 360 1.6 6.4 0.00 0.00 0.00 71 1019.4
20260508133552 13 360 0.0 6.4 0.00 0.00 0.00 73 1019.4
20260508133050 13 360 0.0 4.8 0.00 0.00 0.00 74 1019.3
20260508132553 13 0 0.0 4.8 0.00 0.00 0.00 75 1019.3
20260508132053 12 0 0.0 4.8 0.00 0.00 0.00 77 1019.4
20260508131558 12 0 0.0 4.8 0.00 0.00 0.00 78 1019.3
20260508131053 12 0 0.0 3.2 0.00 0.00 0.00 78 1019.4
20260508130552 12 0 0.0 4.8 0.00 0.00 0.00 79 1019.4
20260508130109 11 0 0.0 4.8 0.00 0.00 0.00 80 1019.3
20260508125552 11 360 0.0 4.8 0.00 0.00 0.00 81 1019.4
20260508125053 11 0 0.0 4.8 0.00 0.00 0.00 81 1019.4
20260508124554 10 0 1.6 4.8 0.00 0.00 0.00 83 1019.5
20260508124052 10 360 0.0 3.2 0.00 0.00 0.00 83 1019.5
20260508123554 10 360 0.0 1.6 0.00 0.00 0.00 84 1019.5
20260508123100 10 0 0.0 1.6 0.00 0.00 0.00 85 1019.5
20260508122552 9 0 0.0 1.6 0.00 0.00 0.00 86 1019.5
20260508122057 9 0 0.0 1.6 0.00 0.00 0.00 85 1019.3
20260508121602 8 0 0.0 0.0 0.00 0.00 0.00 87 1019.3
20260508121053 8 0 0.0 0.0 0.00 0.00 0.00 88 1019.2
20260508120552 8 0 0.0 0.0 0.00 0.00 0.00 88 1019.2
20260508120056 8 0 0.0 0.0 0.00 0.00 0.00 87 1019.2
20260508115553 8 0 0.0 0.0 0.00 0.00 0.00 88 1019.1
20260508115052 8 0 0.0 0.0 0.00 0.00 0.00 88 1019.0
20260508114557 8 0 0.0 0.0 0.00 0.00 0.00 88 1019.1
20260508114052 8 0 0.0 0.0 0.00 0.00 0.00 88 1018.9
20260508113552 8 0 0.0 0.0 0.00 0.00 0.00 88 1018.6
20260508113053 8 0 0.0 0.0 0.00 0.00 0.00 88 1018.4
20260508112552 8 0 0.0 0.0 0.00 0.00 0.00 88 1018.4
20260508112052 8 0 0.0 0.0 0.00 0.00 0.00 87 1018.3
20260508111556 8 0 0.0 0.0 0.00 0.00 0.00 87 1018.0
20260508111054 8 0 0.0 1.6 0.00 0.00 0.00 87 1018.0
20260508110553 8 0 0.0 1.6 0.00 0.00 0.00 86 1017.9
20260508110057 8 0 0.0 3.2 0.00 0.00 0.00 85 1017.9
20260508105552 8 0 0.0 4.8 0.00 0.03 0.00 86 1017.8
20260508105053 8 0 0.0 4.8 0.00 0.03 0.00 87 1017.8
20260508104617 8 360 0.0 1.6 0.00 0.03 0.00 87 1017.8
20260508104057 8 0 0.0 3.2 0.00 0.03 0.00 88 1017.8
20260508103552 8 0 0.0 3.2 0.00 0.03 0.00 88 1017.6
20260508103056 8 360 0.0 4.8 0.00 0.03 0.00 88 1017.7
20260508102552 8 360 1.6 6.4 0.00 0.03 0.00 89 1017.4
20260508102052 8 360 1.6 6.4 0.00 0.03 0.00 89 1017.5
20260508101553 8 360 1.6 4.8 0.00 0.03 0.00 89 1017.3
20260508101053 8 0 0.0 3.2 0.00 0.03 0.00 89 1017.1
20260508100552 8 360 0.0 6.4 0.00 0.03 0.00 89 1017.2
20260508100100 8 0 0.0 6.4 0.00 0.03 0.00 90 1017.3
20260508095552 8 360 1.6 4.8 0.00 0.28 0.00 90 1017.1
20260508095052 8 360 1.6 4.8 0.00 0.28 0.00 90 1017.3
20260508094557 8 0 0.0 1.6 0.00 0.28 0.00 90 1017.3
20260508094054 8 0 0.0 0.0 0.00 0.28 0.00 90 1017.1
20260508093556 8 0 0.0 0.0 0.00 0.28 0.00 90 1017.1
20260508093101 8 0 0.0 0.0 0.00 0.28 0.00 90 1017.0
20260508092551 8 0 0.0 0.0 0.00 0.28 0.00 90 1017.2
20260508092056 8 0 0.0 0.0 0.00 0.28 0.00 90 1017.2
20260508091609 8 0 0.0 0.0 0.00 0.28 0.00 89 1017.1
20260508091050 8 0 0.0 0.0 0.00 0.28 0.00 89 1017.2
20260508090557 8 0 0.0 0.0 0.00 0.28 0.00 89 1017.1
20260508090107 8 0 0.0 0.0 0.00 0.28 0.00 89 1016.9
20260508085552 8 0 0.0 0.0 0.00 0.46 0.00 89 1017.0
20260508085052 8 0 0.0 0.0 0.00 0.46 0.00 90 1016.8
20260508084557 8 0 0.0 0.0 0.00 0.46 0.00 90 1016.9
20260508084052 8 0 0.0 0.0 0.00 0.46 0.00 90 1016.9
20260508083553 8 0 0.0 0.0 0.00 0.46 0.00 90 1016.9
20260508083111 8 0 0.0 0.0 0.00 0.46 0.00 89 1016.8
20260508082552 9 0 0.0 0.0 0.00 0.46 0.00 89 1016.8
20260508082052 9 0 0.0 0.0 0.00 0.46 0.00 89 1016.9
20260508081559 9 0 0.0 0.0 0.00 0.46 0.00 89 1016.9
20260508081055 9 0 0.0 0.0 0.00 0.46 0.00 89 1017.1
20260508080552 9 0 0.0 0.0 0.00 0.46 0.00 89 1017.0
20260508080110 9 0 0.0 0.0 0.00 0.46 0.00 89 1017.0
20260508075551 9 0 0.0 0.0 0.00 0.46 0.00 89 1016.9
20260508075052 9 0 0.0 0.0 0.00 0.46 0.00 90 1016.9
20260508074557 9 0 0.0 0.0 0.00 0.46 0.00 89 1017.0
20260508074052 9 0 0.0 0.0 0.00 0.46 0.00 89 1016.9
20260508073553 9 0 0.0 0.0 0.00 0.46 0.00 88 1017.1
20260508073106 9 0 0.0 0.0 0.00 0.46 0.00 89 1017.0
20260508072552 9 0 0.0 0.0 0.00 0.46 0.00 89 1017.0
20260508072052 9 0 0.0 0.0 0.00 0.46 0.00 88 1017.1
20260508071604 9 0 0.0 0.0 0.00 0.46 0.00 88 1017.1
20260508071052 9 0 0.0 0.0 0.00 0.46 0.00 88 1017.2
20260508070553 10 0 0.0 0.0 0.00 0.46 0.00 88 1017.3
20260508070142 10 0 0.0 0.0 0.00 0.46 0.00 88 1017.2
20260508065552 10 0 0.0 0.0 0.00 0.46 0.00 88 1017.3
20260508065051 10 0 0.0 0.0 0.00 0.46 0.00 88 1017.2
20260508064614 10 0 0.0 0.0 0.00 0.46 0.00 87 1017.3
20260508064055 10 0 0.0 0.0 0.00 0.46 0.00 87 1017.5
20260508063553 10 0 0.0 0.0 0.00 0.46 0.00 87 1017.5
20260508063059 10 0 0.0 0.0 0.00 0.46 0.00 87 1017.4
20260508062552 10 0 0.0 0.0 0.00 0.46 0.00 87 1017.6
20260508062052 10 0 0.0 0.0 0.00 0.46 0.00 86 1017.4
20260508061605 10 0 0.0 0.0 0.00 0.46 0.00 87 1017.5
20260508061055 10 0 0.0 0.0 0.00 0.46 0.00 86 1017.5
20260508060552 10 0 0.0 0.0 0.00 0.46 0.00 86 1017.7
20260508060056 10 0 0.0 0.0 0.00 0.46 0.00 86 1017.4
20260508055556 10 0 0.0 0.0 0.00 0.46 0.00 87 1017.5
20260508055052 10 0 0.0 0.0 0.00 0.46 0.00 86 1017.6
20260508054553 10 0 0.0 0.0 0.00 0.46 0.00 86 1017.6
20260508054056 10 0 0.0 0.0 0.00 0.46 0.00 86 1017.6
20260508053552 11 0 0.0 0.0 0.00 0.46 0.00 86 1017.6
20260508053103 11 0 0.0 0.0 0.00 0.46 0.00 85 1017.6
20260508052553 11 0 0.0 0.0 0.00 0.46 0.00 85 1017.5
20260508052054 11 0 0.0 0.0 0.00 0.46 0.00 85 1017.6
20260508051558 11 0 0.0 0.0 0.00 0.46 0.00 85 1017.4
20260508051052 11 0 0.0 0.0 0.00 0.46 0.00 84 1017.4
20260508050553 11 0 0.0 0.0 0.00 0.46 0.00 84 1017.3
20260508045552 11 0 0.0 0.0 0.00 0.51 0.00 85 1017.3
20260508045052 11 0 0.0 0.0 0.00 0.51 0.00 84 1017.3
20260508044552 11 0 0.0 0.0 0.00 0.51 0.00 84 1017.5
20260508044051 11 0 0.0 0.0 0.00 0.51 0.00 83 1017.2
20260508043551 11 0 0.0 0.0 0.00 0.51 0.00 83 1017.3
20260508043102 11 0 0.0 0.0 0.00 0.51 0.00 83 1017.3
20260508042549 12 0 0.0 0.0 0.00 0.51 0.00 83 1017.3
20260508042048 12 0 0.0 0.0 0.00 0.51 0.00 84 1017.2
20260508041555 12 0 0.0 0.0 0.00 0.51 0.00 82 1017.3
20260508041055 12 0 0.0 0.0 0.00 0.51 0.00 82 1017.2
20260508040552 12 0 0.0 0.0 0.00 0.51 0.00 82 1017.2
20260508040052 12 0 0.0 0.0 0.00 0.51 0.00 82 1017.2
20260508035552 12 0 0.0 0.0 0.00 0.58 0.51 82 1017.0
20260508035052 12 0 0.0 0.0 0.00 0.58 0.51 82 1017.0
20260508034559 12 0 0.0 0.0 0.00 0.58 0.51 82 1017.1
20260508034052 13 0 0.0 0.0 0.00 0.58 0.51 81 1017.0
20260508033552 13 0 0.0 0.0 0.00 0.58 0.51 81 1017.0
20260508033057 13 0 0.0 0.0 0.00 0.58 0.51 80 1017.1
20260508032552 13 0 0.0 0.0 0.00 0.58 0.51 80 1016.9
20260508032052 13 0 0.0 0.0 0.00 0.58 0.51 79 1017.0
20260508031555 13 0 0.0 0.0 0.00 0.58 0.51 79 1016.9
20260508031054 13 0 0.0 0.0 0.00 0.58 0.51 79 1016.8
20260508030552 13 0 0.0 0.0 0.00 0.58 0.51 78 1016.9
20260508030100 13 0 0.0 1.6 0.00 0.58 0.51 79 1016.7
20260508025548 13 0 0.0 1.6 0.00 0.74 0.51 76 1016.5
20260508025052 13 0 0.0 3.2 0.00 0.74 0.51 74 1016.6
20260508024558 14 0 0.0 4.8 0.00 0.74 0.51 74 1016.5
20260508024053 14 0 0.0 4.8 0.00 0.74 0.51 74 1016.5
20260508023553 14 0 0.0 3.2 0.00 0.74 0.51 74 1016.6
20260508023053 14 0 0.0 0.0 0.00 0.74 0.51 75 1016.4
20260508022554 14 0 0.0 0.0 0.00 0.74 0.51 76 1016.6
20260508022052 14 0 0.0 0.0 0.00 0.74 0.51 74 1016.5
20260508021552 14 0 0.0 0.0 0.00 0.74 0.51 76 1016.6
20260508021054 14 0 0.0 0.0 0.00 0.74 0.51 76 1016.4
20260508020555 15 0 0.0 0.0 0.00 0.74 0.51 77 1016.3
20260508020055 15 0 0.0 0.0 0.00 0.74 0.51 77 1016.2
20260508015552 15 0 0.0 0.0 0.00 0.74 0.51 77 1016.3
20260508015049 15 0 0.0 0.0 0.00 0.74 0.51 75 1016.4
20260508014602 15 0 0.0 0.0 0.00 0.74 0.51 75 1016.2
20260508014052 15 0 0.0 1.6 0.00 0.74 0.51 75 1016.2
20260508013551 15 0 0.0 1.6 0.00 0.74 0.51 75 1015.9
20260508013104 15 0 0.0 0.0 0.00 0.74 0.51 74 1016.1
20260508012551 16 0 0.0 0.0 0.00 0.74 0.51 72 1015.9
20260508012051 16 0 0.0 0.0 0.00 0.74 0.51 70 1015.9
20260508011601 16 0 0.0 0.0 0.00 0.74 0.51 70 1015.7
20260508011051 16 0 0.0 3.2 0.00 0.74 0.51 71 1015.7
20260508010548 16 0 0.0 3.2 0.00 0.74 0.51 69 1015.6
20260508010059 17 0 1.6 3.2 0.00 0.74 0.51 68 1015.5
20260508005552 17 360 0.0 4.8 0.00 0.76 0.51 65 1015.5
20260508005053 17 0 0.0 4.8 0.00 0.76 0.51 63 1015.5
20260508004601 17 0 0.0 6.4 0.00 0.76 0.51 62 1015.3
20260508004052 17 360 0.0 6.4 0.00 0.76 0.51 61 1015.2
20260508003551 17 0 0.0 6.4 0.00 0.76 0.51 60 1015.1
20260508003056 17 360 0.0 6.4 0.00 0.76 0.51 61 1015.0
20260508002551 18 360 0.0 1.6 0.00 0.76 0.51 61 1015.1
20260508002051 18 0 0.0 6.4 0.00 0.76 0.51 61 1015.2
20260508001554 18 0 0.0 6.4 0.00 0.76 0.51 59 1015.0
20260508001051 18 360 0.0 9.7 0.00 0.76 0.51 60 1015.0
20260508000552 18 0 1.6 9.7 0.00 0.76 0.51 59 1014.8
20260508000054 18 360 1.6 8.0 0.00 0.76 0.51 59 1014.8
20260507235553 18 0 3.2 8.0 0.00 1.47 0.51 59 1014.9
20260507235054 18 360 3.2 8.0 0.00 1.47 0.51 59 1014.9
20260507234552 18 360 1.6 8.0 0.00 1.47 0.51 59 1014.7
20260507234052 18 360 0.0 8.0 0.00 1.47 0.51 60 1014.7
20260507233552 18 0 3.2 9.7 0.00 1.47 0.51 60 1014.6
20260507233050 18 360 1.6 9.7 0.00 1.47 0.51 59 1014.6
20260507232551 18 360 1.6 9.7 0.00 1.47 0.51 59 1014.7
20260507232048 18 0 1.6 9.7 0.00 1.47 0.51 57 1014.7
20260507231552 18 360 1.6 16.1 0.00 1.47 0.51 57 1014.8
20260507231048 19 0 4.8 16.1 0.00 1.47 0.51 57 1014.6
20260507230549 19 360 4.8 14.5 0.00 1.47 0.51 58 1014.7
20260507230059 19 360 3.2 12.9 0.00 1.47 0.51 58 1014.6
20260507225548 19 360 1.6 9.7 0.00 1.75 0.51 59 1014.6
20260507225052 19 360 1.6 8.0 0.00 1.75 0.51 60 1014.5
20260507224601 19 0 3.2 8.0 0.00 1.75 0.51 60 1014.5
20260507224052 19 360 3.2 8.0 0.00 1.75 0.51 60 1014.7
20260507223552 20 360 1.6 8.0 0.00 1.75 0.51 60 1014.8
20260507223053 20 0 1.6 12.9 0.00 1.75 0.51 59 1014.6
20260507222551 20 360 3.2 16.1 0.00 1.75 0.51 59 1014.6
20260507222052 20 360 4.8 16.1 0.00 1.75 0.51 58 1014.5
20260507221555 20 360 3.2 14.5 0.00 1.75 0.51 58 1014.5
20260507221052 20 360 4.8 14.5 0.00 1.75 0.51 59 1014.4
20260507220548 20 18 3.2 12.9 0.00 1.75 0.51 59 1014.6
20260507215553 20 0 1.6 17.7 0.00 1.78 0.51 60 1014.6
20260507215049 20 360 3.2 16.1 0.00 1.78 0.51 60 1014.4
20260507214554 20 360 3.2 9.7 0.00 1.78 0.51 61 1014.5
20260507214048 20 360 1.6 9.7 0.00 1.78 0.51 61 1014.4
20260507213548 19 360 3.2 9.7 0.00 1.78 0.51 62 1014.3
20260507213106 19 0 1.6 8.0 0.00 1.78 0.51 62 1014.2
20260507212550 19 360 1.6 9.7 0.00 1.78 0.51 62 1014.2
20260507212052 19 0 3.2 9.7 0.00 1.78 0.51 62 1014.3
20260507211557 19 360 0.0 14.5 0.00 1.78 0.51 64 1014.2
20260507211051 19 360 3.2 14.5 0.00 1.78 0.51 64 1014.3
20260507210549 19 360 3.2 14.5 0.00 1.78 0.51 65 1014.2
20260507210057 19 360 0.0 6.4 0.00 1.78 0.51 66 1014.1
20260507205549 19 360 0.0 9.7 0.00 1.96 0.51 66 1014.2
20260507205054 19 360 0.0 12.9 0.00 1.96 0.51 66 1014.1
20260507204603 19 360 3.2 12.9 0.00 1.96 0.51 66 1014.2
20260507204052 19 360 3.2 12.9 0.00 1.96 0.51 66 1014.1
20260507203551 19 360 1.6 9.7 0.00 1.96 0.51 67 1014.0
20260507203056 19 360 1.6 9.7 0.00 1.96 0.51 67 1013.9
20260507202552 19 360 3.2 9.7 0.00 1.96 0.51 68 1014.2
20260507202048 19 360 3.2 6.4 0.00 1.96 0.51 67 1014.1
20260507201605 19 360 0.0 9.7 0.00 1.96 0.51 68 1014.1
20260507201051 19 0 0.0 9.7 0.00 1.96 0.51 67 1013.9
20260507200548 19 360 1.6 9.7 0.00 1.96 0.51 68 1014.0
20260507200056 19 0 1.6 8.0 0.00 1.96 0.51 68 1014.0
20260507195551 19 0 0.0 9.7 0.00 2.06 0.51 68 1014.0
20260507195051 19 360 1.6 9.7 0.00 2.06 0.51 68 1014.0
20260507194609 19 360 3.2 8.0 0.00 2.06 0.51 68 1014.1
20260507194052 19 360 0.0 9.7 0.00 2.06 0.51 68 1014.2
20260507193551 19 360 1.6 9.7 0.00 2.06 0.51 68 1014.2
20260507193055 19 360 1.6 8.0 0.00 2.06 0.51 68 1014.3
20260507192548 19 0 1.6 12.9 0.00 2.06 0.51 69 1014.3
20260507192048 19 0 0.0 12.9 0.00 2.06 0.51 68 1014.4
20260507191610 19 0 1.6 12.9 0.00 2.06 0.51 68 1014.4
20260507191050 18 360 1.6 9.7 0.00 2.06 0.51 68 1014.4
20260507190548 18 360 1.6 9.7 0.00 2.06 0.51 68 1014.5
20260507190053 18 360 3.2 8.0 0.00 2.06 0.51 69 1014.5
20260507185548 18 360 1.6 8.0 0.00 2.74 0.51 69 1014.6
20260507185052 18 360 0.0 9.7 0.00 2.74 0.51 68 1014.6
20260507184558 18 0 3.2 9.7 0.00 2.74 0.51 68 1014.6
20260507184049 18 360 1.6 12.9 0.00 2.74 0.51 68 1014.7
20260507183550 18 360 4.8 12.9 0.00 2.74 0.51 67 1014.7
20260507183053 18 360 3.2 9.7 0.00 2.74 0.51 68 1014.7
20260507182552 18 360 0.0 8.0 0.00 2.74 0.51 69 1014.7
20260507182052 18 360 4.8 12.9 0.00 2.74 0.51 67 1014.8
20260507181555 18 360 4.8 12.9 0.00 2.74 0.51 68 1014.9
20260507181053 18 0 3.2 9.7 0.00 2.74 0.51 66 1014.9
20260507180549 18 360 4.8 12.9 0.00 2.74 0.51 68 1014.9
20260507180056 18 360 3.2 12.9 0.00 2.74 0.51 68 1014.8
20260507175551 18 360 3.2 9.7 0.00 2.74 0.51 69 1015.0
20260507175048 18 360 4.8 9.7 0.00 2.74 0.51 71 1015.0
20260507174552 17 360 1.6 9.7 0.00 2.74 0.51 70 1015.0
20260507174052 17 360 1.6 14.5 0.00 2.74 0.51 71 1015.1
20260507173551 17 0 3.2 14.5 0.00 2.74 0.51 72 1015.3
20260507173058 17 360 4.8 14.5 0.00 2.74 0.51 71 1015.4
20260507172550 17 360 3.2 14.5 0.00 2.74 0.51 71 1015.4
20260507172052 17 360 3.2 14.5 0.00 2.74 0.51 73 1015.5
20260507171554 17 360 3.2 17.7 0.00 2.74 0.51 72 1015.4
20260507171052 17 360 6.4 17.7 0.00 2.74 0.51 72 1015.5
20260507170552 17 360 4.8 14.5 0.00 2.74 0.51 74 1015.5
20260507170059 17 360 3.2 12.9 0.00 2.74 0.51 75 1015.5
20260507165551 17 0 4.8 14.5 0.00 2.74 0.51 76 1015.5
20260507165051 16 360 3.2 14.5 0.00 2.74 0.51 75 1015.5
20260507164612 16 360 3.2 14.5 0.00 2.74 0.51 79 1015.4
20260507164051 16 360 1.6 14.5 0.00 2.74 0.51 79 1015.5
20260507163552 16 360 3.2 14.5 0.00 2.74 0.51 79 1015.4
20260507163052 15 360 4.8 12.9 0.00 2.74 0.51 80 1015.5
20260507162551 15 360 1.6 9.7 0.00 2.74 0.51 82 1015.4
20260507162049 15 360 3.2 9.7 0.00 2.74 0.51 80 1015.3
20260507161608 15 360 3.2 9.7 0.00 2.74 0.51 81 1015.5
20260507161051 15 360 4.8 9.7 0.00 2.74 0.51 82 1015.5
20260507160552 14 360 1.6 9.7 0.00 2.74 0.51 83 1015.6
20260507160053 14 360 0.0 6.4 0.00 2.74 0.51 84 1015.5
20260507155550 14 0 0.0 9.7 0.00 2.74 0.51 84 1015.5
20260507155052 13 360 1.6 9.7 0.00 2.74 0.51 84 1015.5
20260507154553 13 360 4.8 14.5 0.00 2.74 0.51 84 1015.6
20260507154050 13 360 3.2 14.5 0.00 2.74 0.51 85 1015.6
20260507153553 13 360 4.8 14.5 0.00 2.74 0.51 85 1015.5
20260507153052 13 360 6.4 14.5 0.00 2.74 0.51 85 1015.5
20260507152551 13 360 1.6 12.9 0.00 2.74 0.51 87 1015.5
20260507152051 13 360 3.2 16.1 0.00 2.74 0.51 86 1015.4
20260507151552 13 360 3.2 16.1 0.00 2.74 0.51 86 1015.2
20260507151051 13 360 4.8 14.5 0.00 2.74 0.51 87 1015.2
20260507150551 13 360 4.8 14.5 0.00 2.74 0.51 87 1015.1
20260507150057 13 360 3.2 14.5 0.00 2.74 0.51 87 1015.2
20260507145550 13 360 4.8 17.7 0.00 3.78 0.51 87 1015.3
20260507145054 13 360 3.2 17.7 0.00 3.78 0.51 87 1015.2
20260507144603 13 360 6.4 17.7 0.00 3.78 0.51 88 1015.2
20260507144051 13 360 6.4 12.9 0.00 3.78 0.51 89 1015.1
20260507143549 13 0 3.2 12.9 0.00 3.78 0.51 90 1015.2
20260507143108 13 360 3.2 14.5 0.00 3.78 0.51 91 1015.1
20260507142551 13 0 3.2 14.5 0.00 3.78 0.51 91 1015.0
20260507142050 13 360 3.2 14.5 0.00 3.78 0.51 91 1014.9
20260507141618 13 0 4.8 16.1 0.00 3.78 0.51 92 1015.0
20260507141053 13 0 4.8 16.1 0.00 3.78 0.51 92 1015.0
20260507140548 13 360 3.2 12.9 0.00 3.78 0.51 92 1014.9
20260507140057 13 0 1.6 12.9 0.00 3.78 0.51 92 1014.9